Regional Weather Roundup
Issued by NWS Northern Indiana

Home | Current Version | Previous Version | Text Only | Print | Product List | Glossary Off
Versions: 1 2 3 4 5 6 7 8 9 10 11 12 13 14 15 16 17 18 19 20 21 22 23 24 25 26 27 28 29 30 31 32 33 34 35 36 37 38 39 40 41 42 43 44 45 46 47 48 49 50

000
ASUS43 KIWX 170500
RWRIWX

KIWX WEATHER ROUNDUP
NATIONAL WEATHER SERVICE NORTHERN INDIANA
100 AM EDT WED SEP 17 2014

NOTE: "FAIR" INDICATES FEW OR NO CLOUDS BELOW 12,000 FEET WITH NO
SIGNIFICANT WEATHER AND/OR OBSTRUCTIONS TO VISIBILITY.

* THESE STATIONS ARE NOT UNDER NWS QUALITY CONTROL. THEY ALSO MAY NOT
  REPORT WEATHER SUCH AS PRECIPITATION OR FOG.

INZ001>027-170600-
NORTHERN INDIANA

CITY           SKY/WX    TMP DP  RH WIND       PRES   REMARKS
VALPARAISO     CLEAR     46  44  93 CALM      30.10F FOG
KNOX*          CLEAR     46  44  93 CALM      30.10S
SOUTH BEND     CLEAR     47  43  86 CALM      30.10F
GOSHEN         CLEAR     47  44  90 CALM      30.10F FOG
WARSAW*        FOG       45  45 100 CALM      30.10F VSB 3/4
ANGOLA*        CLEAR     46  45  93 CALM      30.10F
FORT WAYNE     CLEAR     48  45  89 S5        30.11F

$$
INZ028>050-170600-
CENTRAL INDIANA

CITY           SKY/WX    TMP DP  RH WIND       PRES   REMARKS
LAFAYETTE      CLEAR     47  47 100 MISG      30.10S
KOKOMO*        CLEAR     46  43  87 CALM      30.11S
MUNCIE*        CLEAR     47  45  93 CALM      30.11S FOG
INDIANAPOLIS   CLEAR     51  49  92 SW5       30.10F

$$
MIZ043>046-050>051-056>058-064>065-071>073-077>080-170600-
SOUTHWEST LOWER MICHIGAN

CITY           SKY/WX    TMP DP  RH WIND       PRES   REMARKS
BATTLE CREEK   CLEAR     46  41  82 CALM      30.09F
BENTON HARBOR  CLEAR     42  42 100 CALM      30.09F
COLDWATER*     CLEAR     45  44  97 MISG      30.09F
HILLSDALE*     CLEAR     42  42 100 CALM      30.09F
HOLLAND        CLEAR     44  41  89 CALM      30.09F
GRAND RAPIDS   CLEAR     48  42  80 CALM      30.09S
KALAMAZOO      CLEAR     43  41  93 CALM      30.10S
STURGIS*       CLEAR     45  43  93 CALM      30.09F
THREE RIVERS*  FAIR      45  44  95 CALM      30.10S

$$
OHZ001>008-015>018-024>025-170600-
NORTHWEST OHIO

CITY           SKY/WX    TMP DP  RH WIND       PRES   REMARKS
DEFIANCE       CLEAR     48  45  89 CALM      30.10F
FINDLAY        CLEAR     50  46  86 SW3       30.09S
TOLEDO EXPRESS CLEAR     50  45  83 CALM      30.09F
TOLEDO METCALF CLEAR     48  43  82 W6        30.10R
LIMA           CLEAR     47  44  90 CALM      30.10S

$$
&&


USA.gov is the U.S. government's official web portal to all federal, state and local government web resources and services.